QPF
0.00 0.01 0.02 0.03 0.03 0.03 0.02 0.01 0.01 0.01 0.01 0.01 0.01 0.01 0.01 0.01 0.01 0.01 0.01 0.01 0.02 0.02 0.02 0.02 0.03 0.02 0.01 0.02 0.02 0.02 0.02 0.03 0.02 0.01 0.01 0.02 0.03 0.02 0.02 0.01 0.02 0.01 0.02
0.00 0.01 0.03 0.03 0.03 0.03 0.03 0.01 0.01 0.01 0.01 0.01 0.01 0.01 0.01 0.01 0.01 0.02 0.02 0.01 0.02 0.02 0.03 0.04 0.03 0.02 0.02 0.01 0.01 0.01 0.02 0.02 0.02 0.01 0.00 0.01 0.02 0.01 0.01 0.01 0.01 0.02 0.02
0.01 0.01 0.02 0.03 0.04 0.04 0.04 0.03 0.02 0.02 0.01 0.01 0.01 0.01 0.01 0.01 0.02 0.02 0.02 0.02 0.03 0.02 0.03 0.03 0.02 0.02 0.01 0.01 0.01 0.01 0.01 0.01 0.01 0.00 0.00 0.00 0.01 0.01 0.01 0.01 0.02 0.02 0.03
0.01 0.01 0.02 0.03 0.04 0.04 0.04 0.03 0.03 0.02 0.02 0.01 0.01 0.01 0.01 0.01 0.02 0.03 0.04 0.04 0.03 0.03 0.03 0.02 0.02 0.02 0.01 0.01 0.01 0.01 0.01 0.01 0.00 0.00 0.00 0.00 0.01 0.02 0.02 0.01 0.01 0.02 0.02
0.01 0.01 0.02 0.04 0.05 0.04 0.04 0.03 0.03 0.03 0.03 0.03 0.01 0.01 0.01 0.01 0.02 0.03 0.04 0.04 0.03 0.03 0.03 0.02 0.01 0.01 0.01 0.01 0.01 0.01 0.01 0.00 0.00 0.00 0.00 0.00 0.01 0.03 0.03 0.02 0.02 0.02 0.02
0.01 0.01 0.02 0.04 0.05 0.05 0.03 0.03 0.03 0.03 0.04 0.03 0.02 0.02 0.02 0.02 0.02 0.03 0.03 0.04 0.02 0.03 0.03 0.02 0.02 0.02 0.02 0.02 0.01 0.02 0.01 0.01 0.00 0.00 0.00 0.00 0.01 0.03 0.03 0.03 0.03 0.03 0.02
0.01 0.01 0.02 0.03 0.04 0.05 0.04 0.02 0.02 0.03 0.04 0.04 0.03 0.03 0.02 0.02 0.02 0.02 0.03 0.04 0.04 0.03 0.03 0.03 0.02 0.02 0.02 0.01 0.02 0.02 0.01 0.00 0.00 0.00 0.00 0.00 0.01 0.03 0.04 0.04 0.04 0.04 0.03
0.01 0.01 0.02 0.03 0.03 0.04 0.04 0.04 0.03 0.03 0.04 0.04 0.03 0.04 0.03 0.02 0.02 0.02 0.02 0.04 0.04 0.03 0.03 0.03 0.02 0.03 0.02 0.02 0.02 0.02 0.01 0.00 0.00 0.00 0.00 0.00 0.02 0.03 0.04 0.04 0.04 0.05 0.05
0.01 0.01 0.01 0.02 0.02 0.03 0.03 0.04 0.03 0.03 0.03 0.03 0.02 0.03 0.03 0.03 0.02 0.03 0.03 0.04 0.04 0.04 0.03 0.02 0.03 0.03 0.03 0.02 0.02 0.02 0.02 0.01 0.00 0.00 0.00 0.00 0.02 0.03 0.03 0.03 0.03 0.05 0.05
0.01 0.01 0.01 0.01 0.02 0.02 0.02 0.03 0.04 0.03 0.03 0.02 0.02 0.02 0.02 0.02 0.02 0.02 0.03 0.04 0.03 0.04 0.03 0.03 0.03 0.03 0.02 0.02 0.02 0.02 0.02 0.02 0.01 0.00 0.00 0.01 0.03 0.04 0.05 0.05 0.05 0.04 0.05
0.01 0.01 0.01 0.01 0.01 0.02 0.02 0.02 0.03 0.03 0.03 0.03 0.02 0.01 0.01 0.01 0.01 0.02 0.03 0.06 0.04 0.04 0.04 0.04 0.03 0.02 0.02 0.02 0.02 0.02 0.02 0.02 0.01 0.01 0.01 0.02 0.03 0.06 0.08 0.07 0.05 0.03 0.04
0.01 0.01 0.01 0.01 0.01 0.02 0.02 0.02 0.02 0.02 0.03 0.03 0.03 0.02 0.02 0.01 0.01 0.01 0.04 0.08 0.05 0.04 0.04 0.04 0.04 0.03 0.02 0.02 0.02 0.01 0.01 0.03 0.03 0.02 0.02 0.03 0.03 0.05 0.08 0.08 0.07 0.04 0.03
0.01 0.02 0.02 0.02 0.01 0.02 0.01 0.01 0.02 0.02 0.03 0.03 0.03 0.03 0.03 0.02 0.02 0.02 0.03 0.07 0.05 0.03 0.02 0.02 0.02 0.01 0.02 0.02 0.02 0.01 0.00 0.01 0.02 0.02 0.02 0.03 0.03 0.05 0.06 0.06 0.07 0.06 0.04
0.01 0.02 0.02 0.02 0.02 0.02 0.02 0.02 0.02 0.02 0.03 0.03 0.03 0.03 0.03 0.02 0.02 0.01 0.02 0.04 0.04 0.02 0.02 0.01 0.01 0.01 0.02 0.02 0.02 0.01 0.00 0.00 0.00 0.01 0.01 0.03 0.03 0.04 0.05 0.05 0.04 0.04 0.04
0.01 0.02 0.03 0.03 0.02 0.02 0.03 0.03 0.02 0.02 0.03 0.04 0.05 0.05 0.04 0.03 0.02 0.03 0.02 0.03 0.03 0.03 0.02 0.02 0.02 0.02 0.02 0.03 0.03 0.02 0.01 0.00 0.00 0.00 0.01 0.01 0.02 0.04 0.06 0.06 0.05 0.05 0.04
0.02 0.02 0.02 0.03 0.02 0.02 0.02 0.02 0.02 0.01 0.02 0.04 0.05 0.05 0.05 0.05 0.05 0.04 0.03 0.03 0.02 0.03 0.03 0.03 0.02 0.02 0.03 0.03 0.04 0.03 0.01 0.01 0.01 0.01 0.01 0.01 0.02 0.03 0.05 0.06 0.06 0.06 0.06
0.02 0.02 0.02 0.03 0.02 0.02 0.02 0.02 0.02 0.01 0.02 0.03 0.04 0.05 0.05 0.06 0.06 0.05 0.04 0.03 0.02 0.02 0.03 0.03 0.04 0.04 0.04 0.04 0.04 0.04 0.03 0.02 0.02 0.02 0.01 0.01 0.01 0.02 0.03 0.05 0.06 0.07 0.08
0.02 0.03 0.03 0.03 0.02 0.02 0.02 0.02 0.02 0.02 0.02 0.02 0.03 0.03 0.04 0.05 0.06 0.07 0.05 0.03 0.02 0.04 0.05 0.03 0.03 0.03 0.04 0.04 0.04 0.05 0.05 0.04 0.02 0.02 0.02 0.02 0.02 0.01 0.02 0.03 0.05 0.07 0.09
0.02 0.03 0.04 0.04 0.02 0.01 0.02 0.02 0.02 0.02 0.02 0.02 0.02 0.02 0.03 0.04 0.05 0.07 0.09 0.07 0.04 0.03 0.04 0.05 0.03 0.03 0.03 0.04 0.05 0.06 0.06 0.05 0.04 0.03 0.03 0.03 0.02 0.02 0.02 0.03 0.04 0.08 0.12
0.02 0.03 0.05 0.05 0.04 0.04 0.02 0.01 0.01 0.02 0.02 0.02 0.02 0.02 0.02 0.03 0.05 0.07 0.08 0.10 0.11 0.08 0.05 0.05 0.06 0.04 0.03 0.03 0.05 0.07 0.07 0.06 0.05 0.05 0.04 0.03 0.02 0.02 0.02 0.02 0.03 0.05 0.12
0.02 0.03 0.04 0.05 0.04 0.05 0.03 0.02 0.01 0.01 0.02 0.03 0.03 0.02 0.02 0.02 0.04 0.07 0.08 0.09 0.10 0.09 0.09 0.08 0.07 0.06 0.04 0.03 0.03 0.04 0.06 0.07 0.06 0.06 0.05 0.02 0.02 0.03 0.03 0.03 0.02 0.03 0.05
0.01 0.02 0.04 0.04 0.04 0.04 0.04 0.03 0.03 0.02 0.01 0.03 0.06 0.04 0.03 0.03 0.03 0.04 0.06 0.07 0.08 0.09 0.08 0.08 0.08 0.07 0.05 0.03 0.02 0.03 0.05 0.06 0.05 0.05 0.04 0.03 0.02 0.02 0.03 0.03 0.03 0.03 0.03
0.01 0.01 0.03 0.04 0.04 0.03 0.03 0.03 0.03 0.03 0.02 0.01 0.03 0.06 0.05 0.03 0.03 0.04 0.05 0.05 0.06 0.07 0.07 0.07 0.07 0.06 0.05 0.04 0.03 0.02 0.03 0.04 0.03 0.03 0.02 0.02 0.02 0.01 0.01 0.02 0.03 0.03 0.03
0.01 0.02 0.02 0.03 0.04 0.05 0.04 0.03 0.03 0.03 0.02 0.01 0.01 0.04 0.06 0.06 0.05 0.04 0.04 0.06 0.07 0.08 0.06 0.06 0.05 0.05 0.05 0.04 0.04 0.02 0.01 0.01 0.01 0.02 0.01 0.01 0.01 0.01 0.01 0.02 0.02 0.02 0.02
0.00 0.01 0.01 0.02 0.03 0.04 0.04 0.04 0.03 0.03 0.03 0.02 0.01 0.02 0.04 0.05 0.05 0.05 0.04 0.03 0.05 0.06 0.05 0.04 0.04 0.04 0.05 0.04 0.03 0.02 0.01 0.01 0.01 0.00 0.01 0.01 0.01 0.01 0.01 0.01 0.02 0.03 0.02
0.00 0.00 0.01 0.01 0.01 0.02 0.03 0.02 0.02 0.03 0.03 0.02 0.02 0.01 0.02 0.03 0.04 0.04 0.03 0.03 0.03 0.04 0.05 0.05 0.04 0.04 0.04 0.04 0.04 0.03 0.02 0.01 0.01 0.01 0.01 0.01 0.00 0.00 0.01 0.01 0.02 0.02 0.03
MSLP
1019.52 1019.27 1019.11 1019.05 1019.10 1019.22 1019.34 1019.44 1019.46 1019.38 1019.23 1019.04 1018.83 1018.66 1018.54 1018.48 1018.47 1018.47 1018.47 1018.44 1018.39 1018.32 1018.26 1018.23 1018.24 1018.31 1018.41 1018.53 1018.64 1018.73 1018.78 1018.80 1018.80 1018.79 1018.79 1018.81 1018.83 1018.86 1018.86 1018.84 1018.78 1018.70 1018.60
1019.39 1019.21 1019.10 1019.09 1019.18 1019.32 1019.47 1019.58 1019.61 1019.57 1019.45 1019.31 1019.17 1019.06 1019.01 1019.01 1019.04 1019.08 1019.09 1019.06 1018.99 1018.90 1018.82 1018.77 1018.76 1018.80 1018.87 1018.95 1019.02 1019.06 1019.07 1019.04 1019.01 1018.98 1018.97 1018.99 1019.03 1019.08 1019.10 1019.09 1019.03 1018.93 1018.82
1019.32 1019.19 1019.14 1019.18 1019.31 1019.48 1019.65 1019.78 1019.84 1019.82 1019.75 1019.66 1019.58 1019.54 1019.55 1019.61 1019.67 1019.73 1019.73 1019.69 1019.59 1019.47 1019.36 1019.27 1019.23 1019.24 1019.29 1019.34 1019.38 1019.38 1019.35 1019.29 1019.22 1019.17 1019.16 1019.18 1019.23 1019.29 1019.34 1019.34 1019.29 1019.20 1019.08
1019.33 1019.26 1019.26 1019.35 1019.51 1019.71 1019.90 1020.05 1020.13 1020.14 1020.10 1020.06 1020.03 1020.04 1020.10 1020.19 1020.28 1020.34 1020.33 1020.26 1020.14 1019.98 1019.82 1019.70 1019.63 1019.62 1019.64 1019.67 1019.69 1019.68 1019.62 1019.54 1019.46 1019.39 1019.36 1019.37 1019.42 1019.49 1019.55 1019.57 1019.55 1019.48 1019.38
1019.45 1019.42 1019.48 1019.61 1019.81 1020.03 1020.24 1020.39 1020.48 1020.51 1020.49 1020.47 1020.47 1020.51 1020.59 1020.70 1020.80 1020.85 1020.84 1020.74 1020.59 1020.40 1020.21 1020.06 1019.97 1019.93 1019.94 1019.96 1019.98 1019.96 1019.90 1019.81 1019.70 1019.62 1019.56 1019.55 1019.59 1019.65 1019.71 1019.75 1019.76 1019.73 1019.67
1019.66 1019.69 1019.78 1019.95 1020.17 1020.41 1020.62 1020.78 1020.87 1020.90 1020.88 1020.86 1020.87 1020.91 1021.00 1021.10 1021.20 1021.25 1021.22 1021.12 1020.95 1020.75 1020.54 1020.37 1020.26 1020.21 1020.21 1020.23 1020.25 1020.23 1020.18 1020.08 1019.97 1019.85 1019.76 1019.71 1019.71 1019.74 1019.80 1019.85 1019.89 1019.90 1019.90
1019.94 1020.01 1020.14 1020.34 1020.57 1020.82 1021.03 1021.19 1021.27 1021.28 1021.25 1021.22 1021.21 1021.24 1021.31 1021.41 1021.49 1021.54 1021.52 1021.42 1021.26 1021.06 1020.85 1020.68 1020.55 1020.49 1020.48 1020.50 1020.52 1020.52 1020.47 1020.37 1020.24 1020.09 1019.96 1019.85 1019.79 1019.78 1019.80 1019.85 1019.92 1019.98 1020.05
1020.25 1020.36 1020.52 1020.73 1020.98 1021.22 1021.43 1021.58 1021.65 1021.65 1021.60 1021.55 1021.51 1021.52 1021.57 1021.65 1021.73 1021.78 1021.77 1021.70 1021.56 1021.38 1021.18 1021.01 1020.88 1020.82 1020.80 1020.81 1020.83 1020.82 1020.77 1020.67 1020.51 1020.33 1020.14 1019.97 1019.84 1019.77 1019.74 1019.78 1019.85 1019.96 1020.08
1020.58 1020.71 1020.88 1021.10 1021.34 1021.58 1021.79 1021.93 1021.99 1021.99 1021.94 1021.87 1021.82 1021.80 1021.82 1021.88 1021.95 1022.01 1022.02 1021.98 1021.87 1021.73 1021.56 1021.40 1021.27 1021.19 1021.16 1021.15 1021.16 1021.14 1021.08 1020.97 1020.80 1020.58 1020.34 1020.10 1019.90 1019.75 1019.67 1019.66 1019.73 1019.85 1020.01
1020.90 1021.04 1021.22 1021.43 1021.66 1021.89 1022.09 1022.23 1022.31 1022.32 1022.28 1022.22 1022.16 1022.12 1022.12 1022.16 1022.22 1022.28 1022.31 1022.29 1022.22 1022.11 1021.98 1021.83 1021.70 1021.61 1021.55 1021.52 1021.50 1021.46 1021.39 1021.27 1021.08 1020.84 1020.56 1020.27 1019.99 1019.78 1019.63 1019.57 1019.61 1019.73 1019.90
1021.23 1021.37 1021.52 1021.71 1021.92 1022.13 1022.33 1022.48 1022.59 1022.63 1022.63 1022.59 1022.54 1022.50 1022.49 1022.51 1022.54 1022.59 1022.63 1022.63 1022.60 1022.52 1022.41 1022.28 1022.15 1022.03 1021.94 1021.88 1021.82 1021.77 1021.68 1021.55 1021.36 1021.10 1020.80 1020.48 1020.16 1019.88 1019.68 1019.56 1019.56 1019.64 1019.81
1021.59 1021.70 1021.82 1021.96 1022.13 1022.31 1022.50 1022.67 1022.81 1022.91 1022.96 1022.97 1022.95 1022.92 1022.90 1022.90 1022.91 1022.94 1022.96 1022.98 1022.96 1022.90 1022.82 1022.69 1022.56 1022.42 1022.30 1022.20 1022.11 1022.02 1021.92 1021.79 1021.60 1021.36 1021.06 1020.73 1020.39 1020.08 1019.83 1019.67 1019.61 1019.66 1019.78
1022.01 1022.06 1022.11 1022.19 1022.30 1022.44 1022.61 1022.79 1022.97 1023.13 1023.25 1023.32 1023.35 1023.34 1023.32 1023.29 1023.27 1023.26 1023.27 1023.27 1023.26 1023.22 1023.15 1023.04 1022.90 1022.75 1022.59 1022.45 1022.32 1022.21 1022.10 1021.96 1021.80 1021.58 1021.31 1021.00 1020.67 1020.36 1020.09 1019.89 1019.78 1019.77 1019.85
1022.49 1022.47 1022.44 1022.43 1022.45 1022.53 1022.67 1022.85 1023.06 1023.28 1023.47 1023.61 1023.69 1023.71 1023.68 1023.63 1023.58 1023.53 1023.51 1023.49 1023.48 1023.45 1023.39 1023.29 1023.15 1022.99 1022.81 1022.63 1022.46 1022.32 1022.19 1022.06 1021.91 1021.73 1021.51 1021.25 1020.96 1020.67 1020.41 1020.19 1020.05 1019.98 1020.00
1023.07 1022.95 1022.82 1022.70 1022.62 1022.61 1022.69 1022.85 1023.08 1023.34 1023.59 1023.79 1023.92 1023.97 1023.95 1023.88 1023.79 1023.71 1023.65 1023.62 1023.60 1023.58 1023.54 1023.45 1023.33 1023.15 1022.95 1022.74 1022.54 1022.37 1022.21 1022.08 1021.94 1021.80 1021.63 1021.43 1021.20 1020.95 1020.72 1020.51 1020.34 1020.24 1020.20
1023.73 1023.51 1023.26 1023.03 1022.83 1022.73 1022.73 1022.85 1023.07 1023.34 1023.63 1023.88 1024.05 1024.12 1024.10 1024.02 1023.90 1023.78 1023.70 1023.65 1023.63 1023.62 1023.60 1023.55 1023.44 1023.27 1023.06 1022.82 1022.59 1022.37 1022.18 1022.03 1021.90 1021.78 1021.65 1021.50 1021.34 1021.15 1020.95 1020.77 1020.61 1020.48 1020.40
1024.49 1024.17 1023.81 1023.45 1023.14 1022.93 1022.84 1022.90 1023.09 1023.36 1023.66 1023.93 1024.11 1024.20 1024.18 1024.08 1023.94 1023.80 1023.69 1023.63 1023.61 1023.63 1023.63 1023.61 1023.53 1023.37 1023.16 1022.90 1022.63 1022.37 1022.15 1021.96 1021.81 1021.70 1021.59 1021.48 1021.36 1021.23 1021.08 1020.93 1020.79 1020.66 1020.56
1025.34 1024.93 1024.47 1024.01 1023.60 1023.28 1023.11 1023.09 1023.22 1023.46 1023.74 1024.00 1024.19 1024.27 1024.24 1024.12 1023.96 1023.79 1023.67 1023.60 1023.60 1023.63 1023.67 1023.68 1023.62 1023.49 1023.28 1023.01 1022.71 1022.41 1022.14 1021.91 1021.72 1021.58 1021.48 1021.38 1021.29 1021.20 1021.09 1020.98 1020.86 1020.75 1020.64
1026.29 1025.81 1025.28 1024.74 1024.24 1023.84 1023.59 1023.50 1023.57 1023.75 1023.99 1024.21 1024.37 1024.42 1024.37 1024.22 1024.03 1023.84 1023.70 1023.62 1023.62 1023.67 1023.73 1023.76 1023.74 1023.63 1023.43 1023.16 1022.84 1022.51 1022.19 1021.91 1021.68 1021.50 1021.37 1021.26 1021.17 1021.09 1021.01 1020.92 1020.83 1020.74 1020.65
1027.33 1026.80 1026.24 1025.65 1025.11 1024.65 1024.34 1024.18 1024.18 1024.29 1024.46 1024.63 1024.73 1024.73 1024.62 1024.44 1024.21 1023.99 1023.82 1023.73 1023.71 1023.75 1023.82 1023.87 1023.86 1023.77 1023.59 1023.33 1023.01 1022.66 1022.31 1021.99 1021.72 1021.49 1021.31 1021.18 1021.06 1020.97 1020.89 1020.81 1020.74 1020.67 1020.59
1028.45 1027.91 1027.34 1026.74 1026.18 1025.70 1025.35 1025.14 1025.07 1025.11 1025.20 1025.28 1025.30 1025.23 1025.06 1024.82 1024.54 1024.27 1024.06 1023.92 1023.87 1023.88 1023.93 1023.97 1023.97 1023.89 1023.73 1023.49 1023.18 1022.84 1022.49 1022.15 1021.85 1021.58 1021.35 1021.16 1021.01 1020.88 1020.78 1020.69 1020.62 1020.56 1020.50
1029.61 1029.09 1028.53 1027.97 1027.42 1026.95 1026.59 1026.34 1026.22 1026.18 1026.18 1026.16 1026.09 1025.93 1025.68 1025.37 1025.02 1024.69 1024.41 1024.21 1024.10 1024.05 1024.04 1024.05 1024.02 1023.95 1023.80 1023.59 1023.32 1023.02 1022.69 1022.36 1022.05 1021.76 1021.49 1021.25 1021.04 1020.86 1020.71 1020.59 1020.51 1020.44 1020.39
1030.77 1030.28 1029.77 1029.25 1028.75 1028.31 1027.95 1027.69 1027.52 1027.41 1027.32 1027.20 1027.03 1026.78 1026.44 1026.05 1025.63 1025.22 1024.86 1024.58 1024.37 1024.23 1024.14 1024.08 1024.01 1023.92 1023.78 1023.60 1023.38 1023.14 1022.87 1022.58 1022.29 1021.99 1021.70 1021.42 1021.15 1020.91 1020.70 1020.54 1020.41 1020.33 1020.27
1031.87 1031.43 1030.97 1030.50 1030.06 1029.66 1029.33 1029.06 1028.85 1028.67 1028.50 1028.30 1028.03 1027.69 1027.27 1026.81 1026.31 1025.83 1025.38 1025.00 1024.68 1024.43 1024.23 1024.07 1023.93 1023.80 1023.66 1023.51 1023.35 1023.17 1022.98 1022.76 1022.51 1022.23 1021.94 1021.62 1021.30 1021.00 1020.73 1020.50 1020.33 1020.21 1020.13
1032.85 1032.45 1032.05 1031.64 1031.26 1030.90 1030.59 1030.32 1030.08 1029.86 1029.61 1029.33 1028.98 1028.57 1028.09 1027.57 1027.02 1026.47 1025.94 1025.46 1025.03 1024.65 1024.33 1024.05 1023.82 1023.63 1023.47 1023.34 1023.22 1023.11 1022.99 1022.85 1022.66 1022.42 1022.13 1021.80 1021.45 1021.09 1020.76 1020.47 1020.24 1020.07 1019.95
1033.66 1033.31 1032.96 1032.61 1032.27 1031.96 1031.67 1031.39 1031.13 1030.85 1030.55 1030.20 1029.80 1029.34 1028.83 1028.28 1027.69 1027.10 1026.52 1025.95 1025.41 1024.91 1024.46 1024.06 1023.72 1023.45 1023.25 1023.11 1023.03 1022.97 1022.92 1022.84 1022.71 1022.51 1022.24 1021.90 1021.52 1021.12 1020.74 1020.39 1020.10 1019.89 1019.73
Thickness
5696 5697 5697 5697 5697 5696 5696 5695 5695 5695 5695 5695 5695 5695 5696 5696 5697 5697 5698 5699 5699 5700 5700 5701 5701 5701 5702 5702 5702 5702 5703 5703 5703 5704 5704 5704 5705 5705 5705 5705 5705 5705 5705
5696 5695 5695 5694 5693 5693 5692 5692 5691 5691 5691 5691 5691 5691 5692 5692 5693 5694 5694 5695 5695 5696 5696 5697 5697 5697 5698 5698 5698 5698 5698 5699 5699 5699 5700 5700 5701 5701 5701 5701 5702 5702 5702
5692 5691 5691 5691 5690 5689 5688 5688 5687 5687 5687 5687 5687 5687 5687 5688 5689 5689 5690 5691 5691 5692 5692 5692 5693 5693 5693 5694 5694 5694 5694 5695 5695 5695 5696 5697 5697 5698 5698 5698 5698 5698 5699
5688 5687 5686 5686 5685 5685 5684 5683 5683 5683 5683 5683 5683 5683 5683 5684 5684 5685 5685 5686 5687 5687 5688 5688 5688 5688 5689 5689 5689 5690 5690 5690 5691 5691 5692 5693 5693 5694 5695 5695 5695 5695 5695
5682 5682 5682 5681 5681 5680 5679 5679 5679 5679 5678 5679 5679 5679 5679 5679 5680 5680 5681 5681 5682 5682 5683 5683 5684 5684 5684 5685 5685 5686 5686 5686 5687 5687 5688 5689 5690 5690 5691 5691 5691 5691 5691
5676 5676 5676 5676 5676 5675 5675 5674 5674 5674 5674 5674 5674 5674 5674 5675 5675 5675 5676 5676 5677 5677 5678 5679 5679 5679 5680 5680 5681 5681 5682 5682 5683 5683 5684 5684 5685 5686 5687 5687 5687 5687 5687
5670 5670 5670 5670 5670 5670 5669 5669 5669 5669 5669 5669 5669 5669 5670 5670 5670 5671 5671 5672 5672 5673 5673 5674 5674 5675 5675 5676 5676 5677 5677 5678 5678 5679 5679 5680 5681 5682 5682 5683 5683 5683 5683
5663 5663 5664 5664 5664 5664 5664 5663 5663 5664 5664 5664 5664 5664 5665 5665 5665 5666 5666 5667 5667 5668 5669 5669 5670 5670 5671 5671 5672 5672 5673 5673 5674 5674 5675 5675 5676 5678 5678 5678 5678 5678 5678
5656 5656 5656 5656 5656 5656 5657 5657 5657 5658 5658 5658 5659 5659 5659 5660 5660 5661 5661 5662 5663 5663 5664 5664 5665 5665 5666 5666 5667 5667 5668 5668 5669 5669 5670 5671 5672 5673 5673 5674 5674 5674 5674
5648 5648 5648 5648 5649 5649 5649 5650 5650 5651 5652 5652 5653 5653 5654 5655 5655 5656 5656 5657 5658 5658 5658 5659 5659 5660 5660 5661 5662 5662 5663 5663 5664 5664 5665 5666 5667 5668 5669 5669 5669 5669 5669
5640 5639 5640 5640 5640 5641 5642 5642 5643 5644 5645 5646 5647 5647 5648 5649 5649 5650 5651 5652 5652 5652 5653 5653 5654 5654 5655 5655 5656 5657 5657 5658 5658 5659 5660 5661 5663 5663 5664 5664 5664 5664 5663
5631 5631 5632 5632 5633 5633 5634 5634 5635 5636 5637 5638 5640 5641 5642 5643 5643 5644 5645 5645 5646 5647 5647 5647 5648 5648 5649 5649 5650 5651 5652 5652 5653 5654 5655 5656 5658 5658 5658 5658 5659 5658 5658
5622 5623 5623 5624 5625 5625 5626 5627 5627 5628 5630 5631 5633 5634 5635 5636 5637 5638 5638 5639 5640 5640 5641 5641 5642 5642 5643 5644 5644 5645 5646 5646 5647 5648 5649 5651 5652 5653 5653 5653 5653 5653 5653
5613 5614 5615 5616 5617 5617 5618 5619 5619 5620 5622 5623 5625 5626 5628 5629 5630 5631 5632 5632 5633 5634 5634 5634 5635 5636 5636 5637 5638 5639 5639 5640 5641 5642 5643 5644 5646 5647 5647 5647 5647 5647 5647
5604 5605 5606 5607 5608 5609 5610 5611 5612 5613 5614 5616 5617 5619 5621 5621 5622 5623 5624 5625 5626 5626 5627 5628 5628 5629 5630 5630 5631 5632 5633 5633 5634 5635 5637 5638 5639 5640 5640 5641 5641 5641 5641
5597 5597 5598 5598 5599 5600 5601 5602 5603 5605 5606 5608 5610 5611 5613 5614 5615 5616 5617 5617 5618 5619 5620 5621 5621 5622 5622 5623 5624 5625 5626 5627 5627 5629 5630 5631 5632 5633 5634 5634 5635 5635 5635
5588 5588 5589 5590 5590 5592 5593 5594 5595 5597 5598 5600 5602 5603 5605 5606 5608 5608 5609 5609 5610 5611 5613 5613 5614 5615 5615 5616 5617 5618 5619 5620 5621 5622 5623 5624 5625 5626 5626 5627 5628 5629 5629
5579 5579 5580 5581 5581 5582 5583 5585 5587 5588 5589 5591 5593 5595 5597 5598 5600 5601 5602 5602 5603 5604 5605 5606 5607 5607 5607 5608 5609 5610 5611 5613 5614 5615 5616 5616 5617 5618 5619 5620 5621 5621 5621
5569 5570 5570 5571 5572 5572 5574 5575 5577 5579 5580 5582 5584 5586 5588 5590 5592 5593 5594 5595 5596 5597 5597 5599 5599 5600 5600 5600 5601 5602 5603 5604 5605 5607 5608 5608 5609 5610 5611 5612 5613 5614 5614
5559 5559 5559 5560 5561 5562 5563 5565 5566 5568 5570 5572 5574 5577 5579 5581 5583 5585 5586 5587 5588 5588 5589 5591 5591 5592 5592 5593 5593 5593 5593 5595 5597 5598 5599 5600 5600 5601 5602 5604 5605 5606 5606
5546 5547 5547 5548 5549 5550 5551 5553 5555 5556 5559 5561 5564 5566 5569 5571 5574 5575 5577 5578 5579 5580 5581 5583 5583 5583 5583 5584 5584 5583 5584 5585 5587 5588 5590 5591 5592 5592 5593 5594 5595 5597 5598
5532 5533 5534 5535 5536 5538 5539 5541 5542 5544 5547 5549 5552 5555 5558 5561 5564 5566 5568 5569 5571 5571 5572 5574 5575 5575 5575 5576 5577 5575 5574 5575 5577 5579 5580 5581 5582 5583 5584 5585 5586 5587 5588
5517 5518 5521 5522 5523 5525 5526 5527 5529 5531 5534 5537 5540 5543 5546 5549 5553 5556 5558 5560 5562 5564 5565 5566 5567 5568 5567 5567 5569 5570 5568 5569 5566 5568 5570 5571 5573 5574 5575 5576 5577 5578 5579
5502 5504 5506 5507 5509 5511 5512 5514 5515 5518 5521 5523 5526 5530 5534 5538 5541 5544 5547 5550 5552 5555 5557 5557 5559 5560 5561 5560 5560 5562 5563 5563 5561 5559 5559 5561 5563 5564 5565 5566 5567 5568 5569
5487 5489 5491 5493 5495 5496 5498 5500 5502 5504 5507 5510 5513 5518 5522 5526 5529 5533 5536 5539 5541 5545 5547 5549 5549 5551 5553 5553 5553 5553 5552 5552 5553 5553 5551 5551 5553 5555 5556 5557 5558 5559 5560
5473 5474 5476 5478 5481 5482 5484 5486 5489 5491 5493 5497 5500 5504 5509 5513 5517 5521 5524 5528 5531 5534 5537 5539 5541 5542 5544 5545 5546 5546 5547 5547 5545 5544 5544 5542 5543 5545 5546 5548 5549 5549 5550